Location: Houston
(29.7630°N, 95.3630°W)
Time: 10:48:50
(UTC-06:00)

Daily predictions for brighter satellites

Satellite Brightness Start Highest point End
(mag) Time Altitude Azimuth Time Altitude Azimuth Time Altitude Azimuth
IRS-1A Rocket 4.4 18:27:22 10° SSE 18:33:08 82° ENE 18:39:02 10° N
Meteor 1-25 Rocket 4.4 18:29:29 10° SSE 18:34:45 47° E 18:40:03 10° NNE
Cosmos 1733 Rocket 3.2 18:30:51 10° S 18:35:09 81° W 18:39:28 10° N
Cosmos 1624 Rocket 4.2 18:31:26 10° NNW 18:36:39 81° WSW 18:41:49 10° S
NOSS 0 Rocket 4.2 18:31:25 10° NNW 18:37:37 78° WSW 18:43:49 10° SSE
Tiangong 2 2.7 18:36:53 10° NNW 18:39:25 21° NNE 18:41:56 10° ENE
Cosmos 1437 Rocket 4.0 18:38:37 10° SE 18:41:44 22° E 18:44:53 10° NE
Cosmos 1980 3.8 18:39:26 10° NNW 18:45:08 85° WSW 18:50:48 10° SSE
EO 1 Del DPAF 3.2 18:42:49 10° NNE 18:46:38 74° E 18:50:25 10° S
NOAA 12 4.1 18:42:31 10° SSE 18:47:46 70° ENE 18:53:03 10° N
Cosmos 44 Rocket 4.4 18:44:27 10° N 18:48:39 25° ENE 18:52:52 10° ESE
Gbstr 26 Del rocket 2.6 18:47:22 10° SSW 18:51:06 62° SE 18:54:49 10° NE
SeaSat 1 4.3 18:50:30 10° ENE 18:51:55 11° NE 18:53:20 10° NE
Landsat 4 4.2 18:50:49 10° N 18:54:31 62° WNW 18:58:13 10° SSW
Meteor 1-4 Rocket 4.3 18:54:19 10° ESE 18:55:43 13° E 18:55:43 13° E
Centaur AC-64 4.4 18:54:08 10° WSW 18:56:52 26° S 19:03:50 10° ESE
Sakura Rocket 3.9 18:52:43 10° WSW 18:57:47 72° S 19:03:58 14° E
Envisat 4.3 18:56:31 10° ESE 18:59:56 19° ENE 19:03:21 10° NNE
COSMOS 2455 3.8 18:55:31 10° SSE 19:00:18 25° ESE 19:05:08 10° NE
USA 215 3.2 18:55:36 10° NE 19:02:10 78° SE 19:08:40 10° SW
Cosmos 1975 Rocket 4.3 18:59:14 10° NNE 19:02:34 20° ENE 19:05:53 10° SE
ALOS 3.1 19:00:02 10° S 19:04:34 54° W 19:09:09 10° NNW
FengYun 1-2 T 4.3 19:00:44 10° SSE 19:06:04 52° ENE 19:11:22 10° N
BREEZE-M DEB (TANK) 2.4 19:07:30 10° SW 19:09:57 70° SE 19:14:47 10° NE
Cosmos 1269 Rocket 3.9 19:06:05 10° S 19:11:21 75° ESE 19:16:37 10° NNE
USA 32 4.0 19:06:29 10° S 19:11:38 62° E 19:16:46 10° N
Thor Agena Rocket 3.7 19:08:12 10° NNE 19:13:03 45° E 19:17:50 10° S
Cosmos 1513 Rocket 4.5 19:08:17 10° N 19:14:30 60° E 19:20:36 10° SSE
Cosmos 44 3.5 19:10:11 10° NNW 19:15:16 62° ENE 19:20:32 10° SE
Alouette 2 Rocket 4.3 19:15:33 10° SSE 19:18:26 24° ESE 19:18:26 24° ESE
Cosmos 1633 4.3 19:20:40 10° SSW 19:23:55 34° W 19:27:11 10° NNW
Cosmos 1378 Rocket 3.5 19:20:24 10° N 19:24:50 86° E 19:29:16 10° S
Shenzhou-11 Module 4.5 19:23:45 10° W 19:26:02 20° SW 19:28:19 10° S
SJ-6B 3.0 19:23:13 11° SE 19:26:37 41° ENE 19:30:13 10° N
Cosmos 1782 Rocket 3.5 19:22:57 10° S 19:27:24 86° E 19:31:51 10° N
H-2A R/B 3.3 19:24:58 10° S 19:28:51 61° W 19:32:43 10° NNW
Cosmos 2237 Rocket 3.9 19:24:01 10° NW 19:29:02 34° WSW 19:34:03 10° SSW
Tsikada Rocket 4.0 19:22:54 10° S 19:29:14 67° E 19:35:35 10° NNE
CENTAUR R/B 3.9 19:24:46 10° WSW 19:30:04 35° NW 19:36:01 10° NNE
Sich 1 Rocket 4.3 19:29:02 10° SSW 19:33:29 57° W 19:37:53 10° N
SL-16 R/B 2.1 19:28:21 10° NNW 19:34:02 90° WNW 19:39:41 10° SSE
ERS-2 2.1 19:30:37 10° S 19:34:17 82° WSW 19:37:58 10° NNW
GPS 2-05 Rocket1 2.4 19:33:46 10° WSW 19:36:56 82° NNW 19:37:12 71° NE
Lacrosse 5 3.8 19:33:09 10° WNW 19:37:26 28° WSW 19:41:43 10° S
Okean 1 3.5 19:43:41 10° NNW 19:47:39 69° W 19:51:34 10° S
Meteor 1-13 Rocket 4.3 19:42:39 10° N 19:47:55 45° E 19:49:05 40° ESE
Okean 2 Rocket 2.9 19:43:33 10° S 19:47:56 88° E 19:52:21 10° N
CZ-2D R/B 3.1 19:47:41 50° SE 19:48:34 72° ENE 19:52:27 10° N
CRYOSAT 2 4.3 19:44:26 10° N 19:49:18 83° W 19:54:09 10° S
Iridium 4 Rocket 4.3 19:47:44 10° NNW 19:52:10 44° W 19:56:16 10° SSW
Cosmos 1603 4.2 19:47:27 10° N 19:52:03 37° NE 19:52:03 37° NE
FALCON 9 R/B 4.5 19:44:34 10° WNW 19:52:57 79° NNE 20:10:12 30° E
Cosmos 2251 Rocket 3.6 19:52:01 10° S 19:56:36 51° ESE 19:56:36 51° ESE
Geosat 3.9 19:54:24 18° NNE 19:58:14 89° WNW 20:03:15 10° SSW
Cosmos 2263 Rocket 2.0 19:58:44 10° S 20:04:14 67° ESE 20:04:56 60° ENE
OAO 2 Rocket 3.8 20:04:06 10° WNW 20:08:49 45° N 20:08:56 44° N
Cosmos 921 Rocket 3.9 20:08:09 10° NNW 20:12:30 50° W 20:14:59 23° SSW
Tiangong 2 3.7 20:13:15 10° WNW 20:14:35 21° W 20:14:35 21° W
Meteor 1-5 Rocket 4.3 20:19:00 10° S 20:24:48 84° W 20:30:47 10° N
Meteor 1-11 Rocket 4.5 20:22:40 10° SSW 20:28:01 50° W 20:33:30 10° N
Meteor 2-4 Rocket 3.9 20:22:45 10° N 20:27:29 62° NNW 20:27:29 62° NNW
SeaSat 1 3.1 20:30:03 51° NW 20:30:03 51° NW 20:33:45 10° NNW
Cosmos 1634 Rocket 4.3 20:32:14 10° N 20:36:51 54° N 20:36:51 54° N
Envisat 4.3 20:33:55 10° SSW 20:38:36 38° W 20:43:19 10° NNW
Resurs 01 Rocket 4.2 20:43:36 13° NNW 20:43:36 13° NNW 20:44:10 10° NNW
COSMOS 2455 4.1 20:40:26 10° SW 20:45:58 38° WNW 20:48:54 24° N
Sakura Rocket 4.4 20:46:05 10° W 20:51:23 67° WSW 20:51:23 67° WSW
CZ-4C R/B 4.2 20:52:26 10° NNW 20:55:55 28° N 20:55:55 28° N
CZ-3C R/B 4.2 21:55:37 10° WSW 22:45:45 16° ESE 23:06:12 10° ESE
CZ-3C R/B 4.2 21:55:37 10° WSW 22:45:44 16° ESE 23:06:12 10° ESE
